Total_Precipitation_Accumulation
0.14 0.11 0.08 0.04 0.01 0.00 0.00 0.00 0.02 0.01 0.03 0.04 0.00 0.00 0.00 0.00 0.00 0.00 0.00 0.00 0.00 0.00 0.01 0.04 0.07 0.03 0.02 0.00 0.00 0.01 0.01 0.01 0.02
0.07 0.06 0.03 0.03 0.03 0.03 0.03 0.03 0.02 0.01 0.04 0.09 0.05 0.01 0.00 0.00 0.00 0.00 0.00 0.00 0.00 0.00 0.00 0.01 0.06 0.04 0.02 0.00 0.00 0.00 0.00 0.00 0.02
0.03 0.04 0.06 0.03 0.03 0.03 0.05 0.07 0.05 0.02 0.05 0.12 0.03 0.01 0.02 0.01 0.00 0.00 0.00 0.00 0.00 0.00 0.00 0.00 0.04 0.08 0.02 0.00 0.00 0.00 0.00 0.01 0.01
0.02 0.02 0.05 0.06 0.05 0.04 0.03 0.04 0.05 0.05 0.09 0.10 0.02 0.00 0.01 0.03 0.01 0.00 0.00 0.00 0.00 0.00 0.00 0.00 0.01 0.05 0.02 0.01 0.00 0.00 0.01 0.03 0.02
0.02 0.01 0.01 0.04 0.07 0.06 0.05 0.04 0.02 0.02 0.02 0.03 0.03 0.01 0.00 0.01 0.02 0.00 0.00 0.00 0.00 0.00 0.00 0.00 0.00 0.03 0.03 0.02 0.01 0.00 0.02 0.03 0.02
0.03 0.06 0.04 0.01 0.02 0.03 0.04 0.04 0.03 0.01 0.01 0.00 0.00 0.01 0.00 0.00 0.01 0.00 0.00 0.02 0.10 0.07 0.02 0.00 0.02 0.03 0.07 0.05 0.01 0.01 0.02 0.04 0.06
0.07 0.07 0.03 0.02 0.01 0.00 0.02 0.08 0.05 0.02 0.00 0.00 0.00 0.00 0.00 0.00 0.00 0.00 0.00 0.03 0.12 0.15 0.09 0.04 0.06 0.11 0.13 0.16 0.04 0.04 0.04 0.01 0.04
0.02 0.06 0.09 0.05 0.00 0.00 0.01 0.06 0.08 0.03 0.00 0.00 0.00 0.00 0.00 0.00 0.00 0.00 0.00 0.01 0.05 0.10 0.12 0.06 0.04 0.05 0.14 0.17 0.13 0.06 0.06 0.01 0.01
0.00 0.00 0.01 0.02 0.01 0.00 0.00 0.00 0.01 0.02 0.00 0.00 0.00 0.00 0.00 0.00 0.00 0.00 0.00 0.00 0.03 0.11 0.16 0.11 0.06 0.05 0.07 0.05 0.07 0.08 0.05 0.02 0.01
0.00 0.00 0.00 0.00 0.00 0.00 0.01 0.01 0.00 0.01 0.01 0.01 0.00 0.00 0.00 0.02 0.01 0.00 0.00 0.00 0.03 0.07 0.12 0.08 0.06 0.07 0.04 0.04 0.04 0.04 0.02 0.02 0.02
0.00 0.00 0.00 0.00 0.00 0.00 0.00 0.02 0.04 0.04 0.03 0.02 0.01 0.00 0.00 0.01 0.01 0.01 0.00 0.00 0.00 0.05 0.10 0.12 0.12 0.08 0.05 0.07 0.10 0.08 0.04 0.04 0.02
0.00 0.00 0.00 0.00 0.00 0.00 0.00 0.01 0.03 0.06 0.09 0.08 0.08 0.08 0.04 0.01 0.00 0.01 0.01 0.01 0.01 0.01 0.09 0.10 0.17 0.17 0.11 0.09 0.06 0.07 0.06 0.05 0.04
0.00 0.00 0.00 0.00 0.00 0.00 0.00 0.00 0.00 0.02 0.06 0.08 0.10 0.16 0.15 0.08 0.03 0.01 0.00 0.01 0.02 0.02 0.01 0.07 0.14 0.20 0.15 0.11 0.08 0.07 0.07 0.05 0.02
0.00 0.00 0.00 0.00 0.00 0.00 0.00 0.00 0.01 0.01 0.05 0.17 0.14 0.14 0.14 0.09 0.04 0.02 0.00 0.00 0.01 0.02 0.01 0.01 0.05 0.16 0.20 0.17 0.17 0.11 0.07 0.05 0.04
0.00 0.00 0.00 0.00 0.00 0.00 0.00 0.00 0.00 0.00 0.03 0.17 0.26 0.20 0.17 0.15 0.09 0.04 0.03 0.01 0.01 0.01 0.01 0.02 0.01 0.03 0.09 0.17 0.23 0.20 0.11 0.06 0.05
0.00 0.00 0.00 0.00 0.00 0.00 0.00 0.00 0.00 0.00 0.01 0.03 0.09 0.13 0.09 0.06 0.04 0.04 0.03 0.03 0.02 0.01 0.02 0.02 0.02 0.02 0.05 0.11 0.17 0.23 0.18 0.11 0.07
0.00 0.00 0.00 0.00 0.00 0.00 0.00 0.00 0.00 0.00 0.00 0.02 0.11 0.18 0.16 0.12 0.05 0.02 0.03 0.03 0.03 0.01 0.01 0.03 0.06 0.05 0.04 0.05 0.07 0.13 0.21 0.14 0.12
0.00 0.00 0.00 0.00 0.00 0.00 0.00 0.00 0.00 0.00 0.00 0.01 0.05 0.12 0.16 0.12 0.06 0.05 0.05 0.05 0.06 0.07 0.05 0.02 0.03 0.05 0.05 0.07 0.07 0.11 0.14 0.22 0.24
0.00 0.00 0.00 0.00 0.00 0.00 0.00 0.00 0.00 0.00 0.00 0.00 0.01 0.04 0.05 0.04 0.04 0.02 0.03 0.04 0.05 0.04 0.05 0.06 0.04 0.04 0.05 0.06 0.07 0.08 0.09 0.16 0.22
0.00 0.00 0.00 0.00 0.00 0.00 0.00 0.00 0.00 0.00 0.00 0.00 0.00 0.00 0.00 0.04 0.15 0.14 0.06 0.03 0.02 0.02 0.03 0.05 0.04 0.04 0.06 0.08 0.12 0.17 0.12 0.17 0.22